URMT Weather Reports


time (UTC)temp
C
wind
direction
speed
KPH
gust
KPH
rain 1hr
cm
rain 24hr
cm
rain mn
cm
humidity
%
barometer
mb
20260507083044 13 310 20.9 0.0 0.00 0.00 0.00 76 1020.0
20260507080045 13 310 20.9 0.0 0.00 0.00 0.00 71 1020.0
20260507073043 13 320 20.9 0.0 0.00 0.00 0.00 71 1020.0
20260507070045 12 300 20.9 0.0 0.00 0.00 0.00 76 1020.0
20260507060043 10 290 20.9 0.0 0.00 0.00 0.00 87 1020.0
20260507053043 10 300 20.9 0.0 0.00 0.00 0.00 87 1020.0
20260507050044 10 300 20.9 0.0 0.00 0.00 0.00 87 1019.0
20260507043045 10 290 20.9 0.0 0.00 0.00 0.00 87 1019.0
20260507040044 10 280 20.9 0.0 0.00 0.00 0.00 87 1018.0
20260507033044 10 280 20.9 0.0 0.00 0.00 0.00 87 1018.0
20260507030044 10 270 20.9 0.0 0.00 0.00 0.00 93 1018.0
20260507023045 10 310 20.9 0.0 0.00 0.00 0.00 87 1017.0
20260507020043 10 310 20.9 0.0 0.00 0.00 0.00 76 1017.0
20260507013044 11 310 20.9 0.0 0.00 0.00 0.00 71 1017.0
20260507010043 11 300 20.9 0.0 0.00 0.00 0.00 66 1017.0
20260507003045 11 300 20.9 0.0 0.00 0.00 0.00 62 1017.0
20260507000044 11 290 17.7 0.0 0.00 0.00 0.00 62 1017.0
20260506233045 11 290 20.9 0.0 0.00 0.00 0.00 62 1017.0
20260506230044 11 290 20.9 0.0 0.00 0.00 0.00 62 1017.0
20260506223044 11 290 20.9 0.0 0.00 0.00 0.00 62 1017.0
20260506220046 12 290 17.7 0.0 0.00 0.00 0.00 58 1017.0
20260506213045 11 280 17.7 0.0 0.00 0.00 0.00 62 1017.0
20260506210045 12 290 17.7 0.0 0.00 0.00 0.00 58 1017.0
20260506203046 12 300 17.7 0.0 0.00 0.00 0.00 58 1016.0
20260506200047 12 300 17.7 0.0 0.00 0.00 0.00 58 1016.0
20260506193045 11 270 17.7 0.0 0.00 0.00 0.00 66 1017.0
20260506190045 11 280 17.7 0.0 0.00 0.00 0.00 71 1017.0
20260506183045 12 280 17.7 0.0 0.00 0.00 0.00 66 1016.0
20260506180045 12 280 17.7 0.0 0.00 0.00 0.00 66 1016.0
20260506173045 12 290 17.7 0.0 0.00 0.00 0.00 66 1016.0
20260506170045 12 290 17.7 0.0 0.00 0.00 0.00 66 1016.0
20260506163046 12 290 17.7 0.0 0.00 0.00 0.00 66 1016.0
20260506160046 13 290 17.7 0.0 0.00 0.00 0.00 62 1016.0
20260506153046 13 300 17.7 0.0 0.00 0.00 0.00 62 1015.0
20260506150045 15 310 17.7 0.0 0.00 0.00 0.00 54 1015.0
20260506143045 15 310 20.9 0.0 0.00 0.00 0.00 54 1015.0
20260506140046 15 320 25.7 0.0 0.00 0.00 0.00 54 1015.0
20260506133046 15 330 25.7 0.0 0.00 0.00 0.00 51 1015.0
20260506130045 15 320 20.9 0.0 0.00 0.00 0.00 51 1015.0
20260506123044 15 320 20.9 0.0 0.00 0.00 0.00 47 1015.0
20260506120045 15 330 17.7 0.0 0.00 0.00 0.00 51 1015.0
20260506113045 15 310 17.7 0.0 0.00 0.00 0.00 47 1015.0
20260506110045 15 290 17.7 0.0 0.00 0.00 0.00 54 1015.0
20260506103045 13 290 14.5 0.0 0.00 0.00 0.00 58 1016.0
20260506100047 13 290 14.5 0.0 0.00 0.00 0.00 58 1016.0
20260506093046 12 270 14.5 0.0 0.00 0.00 0.00 58 1016.0
20260506090044 13 280 14.5 0.0 0.00 0.00 0.00 58 1016.0